This is the latest recevied weather packets stored in our database for station/object NO9B. If no packets are shown the sender has not sent any weather packets the latest 10 day(s).
| Time | Temp. | Humidity | Pressure | Rain* | Wind** | Luminosity | Snow |
|---|---|---|---|---|---|---|---|
| 1787923974 | 21.11° C | 87% | 1022.5 hPa | 0 mm | - | 22 W/m² | - |
| 1787923674 | 20.56° C | 87% | 1022.5 hPa | 0 mm | - | 21 W/m² | - |
| 1787923369 | 20.56° C | 90% | 1022.3 hPa | 0 mm | - | 20 W/m² | - |
| 1787923064 | 20° C | 93% | 1022.5 hPa | 0 mm | - | 20 W/m² | - |
| 1787922759 | 20° C | 94% | 1022.5 hPa | 0 mm | - | 19 W/m² | - |
| 1787922458 | 19.44° C | 95% | 1022.3 hPa | 0 mm | - | 18 W/m² | - |
| 1787922156 | 19.44° C | 96% | 1022.4 hPa | 0 mm | - | 18 W/m² | - |
| 1787921855 | 18.89° C | 97% | 1022.3 hPa | 0 mm | - | 17 W/m² | - |
| 1787921550 | 18.89° C | 97% | 1022.4 hPa | 0 mm | - | 17 W/m² | - |
| 1787921250 | 18.33° C | 98% | 1022.4 hPa | 0 mm | - | 16 W/m² | - |
| 1787920946 | 18.33° C | 98% | 1022.3 hPa | 0 mm | - | 15 W/m² | - |
| 1787920641 | 18.33° C | 98% | 1022.2 hPa | 0 mm | - | 15 W/m² | - |
| 1787920340 | 17.78° C | 98% | 1022.2 hPa | 0 mm | - | 14 W/m² | - |
| 1787920038 | 17.78° C | 98% | 1022.1 hPa | 0 mm | - | 13 W/m² | - |
| 1787919732 | 17.22° C | 98% | 1022.1 hPa | 0 mm | - | 13 W/m² | - |
| 1787919431 | 17.22° C | 98% | 1021.9 hPa | 0 mm | - | 12 W/m² | - |
| 1787919128 | 16.67° C | 97% | 1021.9 hPa | 0 mm | - | 11 W/m² | - |
| 1787918828 | 16.67° C | 97% | 1021.9 hPa | 0 mm | - | 10 W/m² | - |
| 1787918523 | 16.67° C | 97% | 1021.8 hPa | 0 mm | - | 9 W/m² | - |
| 1787918221 | 16.11° C | 97% | 1021.7 hPa | 0 mm | - | 8 W/m² | - |
| 1787917920 | 16.11° C | 97% | 1021.6 hPa | 0 mm | - | 8 W/m² | - |
| 1787917616 | 15.56° C | 96% | 1021.6 hPa | 0 mm | - | 7 W/m² | - |
| 1787917313 | 15.56° C | 96% | 1021.6 hPa | 0 mm | - | 6 W/m² | - |
| 1787917012 | 15.56° C | 95% | 1021.6 hPa | 0 mm | - | 5 W/m² | - |
| 1787916707 | 15.56° C | 95% | 1021.3 hPa | 0 mm | - | 4 W/m² | - |
* Rain latest hour (hover to see other rain measurements)
** Current wind speed in m/s (hover to see current wind gust speed)